TimeEDT,TemperatureF,Dew PointF,Humidity,Sea Level PressureIn,VisibilityMPH,Wind Direction,Wind SpeedMPH,Gust SpeedMPH,PrecipitationIn,Events,Conditions,WindDirDegrees,DateUTC
12:53 AM,63.0,57.9,84,30.04,10.0,Calm,Calm,-,N/A,,Overcast,0,2013-10-01 04:53:00
1:53 AM,62.1,57.9,86,30.05,10.0,Calm,Calm,-,N/A,,Overcast,0,2013-10-01 05:53:00
2:53 AM,61.0,57.9,90,30.06,10.0,Calm,Calm,-,N/A,,Overcast,0,2013-10-01 06:53:00
3:53 AM,60.1,57.9,93,30.05,10.0,Calm,Calm,-,N/A,,Overcast,0,2013-10-01 07:53:00
4:53 AM,59.0,57.0,93,30.06,10.0,Calm,Calm,-,N/A,,Clear,0,2013-10-01 08:53:00
5:53 AM,59.0,55.9,90,30.08,10.0,Calm,Calm,-,N/A,,Clear,0,2013-10-01 09:53:00
6:53 AM,57.9,55.0,90,30.10,10.0,Calm,Calm,-,N/A,,Clear,0,2013-10-01 10:53:00
7:53 AM,57.0,55.0,93,30.12,8.0,Calm,Calm,-,N/A,,Clear,0,2013-10-01 11:53:00
8:53 AM,60.1,57.0,90,30.13,10.0,Calm,Calm,-,N/A,,Clear,0,2013-10-01 12:53:00
9:53 AM,64.0,57.0,78,30.14,10.0,Calm,Calm,-,N/A,,Clear,0,2013-10-01 13:53:00
10:53 AM,66.9,57.9,73,30.14,10.0,Calm,Calm,-,N/A,,Clear,0,2013-10-01 14:53:00
11:53 AM,73.0,59.0,61,30.13,10.0,Calm,Calm,-,N/A,,Clear,0,2013-10-01 15:53:00
12:53 PM,75.9,59.0,56,30.12,10.0,Variable,3.5,-,N/A,,Mostly Cloudy,0,2013-10-01 16:53:00
1:53 PM,73.9,57.9,57,30.10,10.0,Variable,3.5,-,N/A,,Overcast,0,2013-10-01 17:53:00
2:53 PM,75.9,59.0,56,30.09,10.0,Calm,Calm,-,N/A,,Mostly Cloudy,0,2013-10-01 18:53:00
3:53 PM,73.0,59.0,61,30.08,10.0,Calm,Calm,-,N/A,,Overcast,0,2013-10-01 19:53:00
4:53 PM,73.0,59.0,61,30.07,10.0,Calm,Calm,-,N/A,,Overcast,0,2013-10-01 20:53:00
5:53 PM,72.0,60.1,66,30.08,10.0,Calm,Calm,-,N/A,,Overcast,0,2013-10-01 21:53:00
6:53 PM,71.1,59.0,66,30.07,10.0,Calm,Calm,-,N/A,,Clear,0,2013-10-01 22:53:00
7:53 PM,68.0,59.0,73,30.08,10.0,Calm,Calm,-,N/A,,Clear,0,2013-10-01 23:53:00
8:53 PM,68.0,59.0,73,30.09,10.0,Calm,Calm,-,N/A,,Clear,0,2013-10-02 00:53:00
9:53 PM,66.9,59.0,76,30.09,10.0,Calm,Calm,-,N/A,,Clear,0,2013-10-02 01:53:00
10:53 PM,64.0,59.0,84,30.10,10.0,Calm,Calm,-,N/A,,Clear,0,2013-10-02 02:53:00
11:53 PM,64.0,59.0,84,30.10,10.0,Calm,Calm,-,N/A,,Partly Cloudy,0,2013-10-02 03:53:00